Showing default

METEOR M2-2, 44387

Orbit data source: Space-Track

METEOR M2-2, 44387 is a Commonwealth of Independent States-origin payload satellite in SSO that was launched on Fri, 05 Jul 2019 UTC via a SOYUZ-2-1B launch vehicle from the Vostochny Cosmodrome (VOSTO). Payload-class satellites include a variety of spacecraft equipped with specific instruments for various scientific and technological missions. These include communications satellites like Starlink; space stations such as the ISS; scientific satellites like the Hubble; Earth observation satellites from companies like Planet Labs, Umbra, and HawkEye 360; GPS; miniature CubeSats for education and research; and military/defense satellites.

Loading next visibility...
Identifier
44387, 2019-038A
Orbit
SSO
Country
Flag of CISCIS
Related business
Manufacturer
VNIIEM
Mission
Partially operational Civil Weather
Bus & Motor
RESURS-O, Unknown motor
Mass
2,879 kg wet, ~2,600 kg dry
Launch date (UTC)
2019-07-05 (7 years ago)
Launch vehicle
SOYUZ-2-1B
Launch site
Vostochny Cosmodrome (VOSTO)
Object type
Payload
Rocket body
Debris
Shape & HBR
Cyl + 2 Pan, 7.0 m
Radar Cross Section
26.744 m², Large (>1 m²)

Expand to show TLE details & history
Last TLE update: 6 hours ago

TLE from 6 hours ago
0 METEOR M2-2
1 44387U 19038A   26072.56844016  .00000349  00000-0  17110-3 0  9997
2 44387  98.9095  58.4738 0000682 353.0959   7.0210 14.24336500347689
Epoch: 2026-03-13T13:38Z
TLE epoch observation values (Epoch: 2026-03-13T13:38:33.229Z)
Latitude
-0.00001°
Longitude
42.63324°
Altitude
813.152 km
Speed
7.447 km/s
True Right ascension
03h 53m 53s
True Declination
0° 00' 00"
Sunlit
Object was in daylight at epoch
Visualization orbit readout
Latitude
Unknown
Longitude
Unknown
Altitude
Unknown
Speed
Unknown
Apparent Right ascension
Unknown
Apparent Declination
Unknown
Sunlit
N/A
Visualization observer readout
Local Sidereal Time
00:08:45
Azimuth
Unknown
Elevation
Unknown
Doppler factor
Unknown
Orbital elements
Apogee altitude
808.377 km
Perigee altitude
807.397 km
Semi-major axis
7,186.024 km
Eccentricity
0.00007
Inclination
98.9095°
RAAN
58.4738°
Arg. of periapsis
353.0959°
True anomaly
7.02196°
Mean anomaly
7.021°
Eccentric anomaly
7.02148°
Mean motion
3.56295 °/min
Orbital period
101.04 mins
BSTAR
0.0001711
Loading maneuver chart data...
Computing Atmospheric mass density...

Documentation

Showing up to 5 results
|